Tracking 31027 objects as of 19-Jul-2025
HD Live streaming from Space Station
objects crossing your sky now

STARLINK-30903

Track STARLINK-30903 now!
10-day predictions
STARLINK-30903 is classified as:


NORAD ID: 58355
Int'l Code: 2023-177E
Perigee: 565.3 km
Apogee: 567.1 km
Inclination: 43.0 °
Period: 95.8 minutes
Semi major axis: 6937 km
RCS: Unknown
Launch date: November 18, 2023
Source: United States (US)
Launch site: AIR FORCE EASTERN TEST RANGE (AFETR)
Your satellite tracking list
THORAD DELTA 1 DEB
Track 1 satellite(s)




NASA's NSSDC Master Catalog

Two Line Element Set (TLE):
1 58355U 23177E   25199.37375350  .00000113  00000-0  23470-4 0  9990
2 58355  43.0017 185.2242 0001335 299.8369  60.2341 15.02535454 92961
Source of the keplerian elements: AFSPC